Laconia, New Hampshire, United States (03246)
Lat: 43.53N, Lon: 71.47W
Wx Zone: NHZ009
Local Info
Past Weather Observations for Friday, April 18, 2014

NOTE: This archive is for the closest National Weather Service station to Laconia. Information may differ from the station used for current weather conditions.

Time Weather Temperature Dewpoint Humidity Pressure Winds Precip Visibility
23:55
Clear
34°F / 1°C 28°F / -2°C 81% 30.21 in
(1023 mb)
SSW 6.9 mph
(SSW 11 kph)
- 10SM
23:35
Clear
34°F / 1°C 27°F / -3°C 75% 30.21 in
(1023 mb)
SW 6.9 mph
(SW 11 kph)
- 10SM
23:15
Clear
34°F / 1°C 27°F / -3°C 75% 30.24 in
(1024 mb)
SW 5.8 mph
(SW 9 kph)
- 10SM
22:55
Clear
34°F / 1°C 27°F / -3°C 75% 30.24 in
(1024 mb)
SW 5.8 mph
(SW 9 kph)
- 10SM
22:35
Clear
36°F / 2°C 27°F / -3°C 70% 30.24 in
(1024 mb)
SSW 4.6 mph
(SSW 7 kph)
- 10SM
22:15
Clear
36°F / 2°C 27°F / -3°C 70% 30.24 in
(1024 mb)
SSW 6.9 mph
(SSW 11 kph)
- 10SM
21:55
Clear
36°F / 2°C 27°F / -3°C 70% 30.24 in
(1024 mb)
SW 9.2 mph
(SW 15 kph)
- 10SM
21:35
Clear
37°F / 3°C 27°F / -3°C 65% 30.24 in
(1024 mb)
SW 10.4 mph
(SW 17 kph)
- 10SM
21:15
Clear
37°F / 3°C 27°F / -3°C 65% 30.24 in
(1024 mb)
SW 8.1 mph
(SW 13 kph)
- 10SM
20:55
Partly Cloudy
37°F / 3°C 27°F / -3°C 65% 30.24 in
(1024 mb)
SSE 5.8 mph
(SSE 9 kph)
- 10SM
20:35
Partly Cloudy
37°F / 3°C 27°F / -3°C 65% 30.24 in
(1024 mb)
SSW 6.9 mph
(SSW 11 kph)
- 10SM
20:15
Clear
37°F / 3°C 27°F / -3°C 65% 30.27 in
(1025 mb)
SW 3.5 mph
(SW 6 kph)
- 10SM
19:55
Clear
39°F / 4°C 27°F / -3°C 61% 30.24 in
(1024 mb)
SW 3.5 mph
(SW 6 kph)
- 10SM
19:35
Clear
39°F / 4°C 27°F / -3°C 61% 30.27 in
(1025 mb)
S 4.6 mph
(S 7 kph)
- 10SM
19:15
Clear
39°F / 4°C 27°F / -3°C 61% 30.27 in
(1025 mb)
SSE 5.8 mph
(SSE 9 kph)
- 10SM
18:55
Clear
41°F / 5°C 27°F / -3°C 57% 30.27 in
(1025 mb)
S 9.2 mph
(S 15 kph)
- 10SM
18:35
Partly Cloudy
43°F / 6°C 27°F / -3°C 53% 30.27 in
(1025 mb)
SSE 10.4 mph
(SSE 17 kph)
- 10SM
18:15
Partly Cloudy
43°F / 6°C 27°F / -3°C 53% 30.27 in
(1025 mb)
S 8.1 mph
(S 13 kph)
- 10SM
17:55
Clear
45°F / 7°C 27°F / -3°C 49% 30.27 in
(1025 mb)
S 9.2 mph
(S 15 kph)
- 10SM
17:35
Clear
45°F / 7°C 25°F / -4°C 46% 30.27 in
(1025 mb)
SSE 8.1 mph
(SSE 13 kph)
- 10SM
17:15
Clear
45°F / 7°C 25°F / -4°C 46% 30.27 in
(1025 mb)
S 8.1 mph
(S 13 kph)
- 10SM
16:55
Clear
46°F / 8°C 25°F / -4°C 43% 30.3 in
(1026 mb)
S 5.8 mph
(S 9 kph)
- 10SM
16:35
Clear
46°F / 8°C 25°F / -4°C 43% 30.3 in
(1026 mb)
SW 4.6 mph
(SW 7 kph)
- 10SM
16:15
Clear
46°F / 8°C 25°F / -4°C 43% 30.33 in
(1027 mb)
S 4.6 mph
(S 7 kph)
- 10SM
15:55
Clear
46°F / 8°C 25°F / -4°C 43% 30.33 in
(1027 mb)
SW 4.6 mph
(SW 7 kph)
- 10SM
15:35
Clear
46°F / 8°C 23°F / -5°C 40% 30.33 in
(1027 mb)
S 8.1 mph
(S 13 kph)
- 10SM
15:15
Clear
46°F / 8°C 23°F / -5°C 40% 30.36 in
(1028 mb)
S 6.9 mph
(S 11 kph)
- 10SM
14:55
Clear
46°F / 8°C 23°F / -5°C 40% 30.36 in
(1028 mb)
SSE 8.1 mph
(SSE 13 kph)
- 10SM
14:35
Clear
46°F / 8°C 25°F / -4°C 43% 30.36 in
(1028 mb)
S 6.9 mph
(S 11 kph)
- 10SM
14:15
Clear
46°F / 8°C 25°F / -4°C 43% 30.39 in
(1029 mb)
SSE 3.5 mph
(SSE 6 kph)
- 10SM
13:55
Clear
46°F / 8°C 23°F / -5°C 40% 30.39 in
(1029 mb)
SE 9.2 mph
(SE 15 kph)
- 10SM
13:35
Clear
46°F / 8°C 21°F / -6°C 37% 30.39 in
(1029 mb)
SE 5.8 mph
(SE 9 kph)
- 10SM
13:15
Clear
48°F / 9°C 25°F / -4°C 40% 30.39 in
(1029 mb)
SE 8.1 mph
(SE 13 kph)
- 10SM
12:55
Clear
46°F / 8°C 25°F / -4°C 43% 30.42 in
(1030 mb)
E 10.4 mph
(E 17 kph)
- 10SM
12:35
Clear
46°F / 8°C 25°F / -4°C 43% 30.42 in
(1030 mb)
ENE 12.7 mph
(ENE 20 kph)
- 10SM
12:15
Clear
45°F / 7°C 25°F / -4°C 46% 30.42 in
(1030 mb)
ENE 10.4 mph
(ENE 17 kph)
- 10SM
11:55
Clear
45°F / 7°C 25°F / -4°C 46% 30.45 in
(1031 mb)
NE 8.1 mph
(NE 13 kph)
- 10SM
11:35
Clear
43°F / 6°C 25°F / -4°C 49% 30.45 in
(1031 mb)
N 6.9 mph
(N 11 kph)
- 10SM
11:15
Clear
45°F / 7°C 25°F / -4°C 46% 30.48 in
(1032 mb)
NE 8.1 mph
(NE 13 kph)
- 10SM
10:55
Clear
43°F / 6°C 25°F / -4°C 49% 30.51 in
(1033 mb)
NE 6.9 mph
(NE 11 kph)
- 10SM
10:35
Clear
41°F / 5°C 25°F / -4°C 53% 30.51 in
(1033 mb)
N 5.8 mph
(N 9 kph)
- 10SM
10:15
Clear
41°F / 5°C 25°F / -4°C 53% 30.51 in
(1033 mb)
N 8.1 mph
(N 13 kph)
- 10SM
09:55
Clear
39°F / 4°C 25°F / -4°C 56% 30.54 in
(1034 mb)
NE 10.4 mph
(NE 17 kph)
- 10SM
09:35
Clear
39°F / 4°C 25°F / -4°C 56% 30.57 in
(1035 mb)
NE 3.5 mph
(NE 6 kph)
- 10SM
09:15
Clear
37°F / 3°C 23°F / -5°C 56% 30.57 in
(1035 mb)
NNE 6.9 mph
(NNE 11 kph)
- 10SM
08:55
Clear
37°F / 3°C 23°F / -5°C 56% 30.57 in
(1035 mb)
N 6.9 mph
(N 11 kph)
- 10SM
08:35
Clear
37°F / 3°C 23°F / -5°C 56% 30.57 in
(1035 mb)
ENE 9.2 mph
(ENE 15 kph)
- 10SM
08:15
Clear
36°F / 2°C 21°F / -6°C 56% 30.57 in
(1035 mb)
ENE 9.2 mph
(ENE 15 kph)
- 10SM
07:55
Clear
34°F / 1°C 21°F / -6°C 60% 30.57 in
(1035 mb)
NE 6.9 mph
(NE 11 kph)
- 10SM
07:35
Clear
34°F / 1°C 21°F / -6°C 60% 30.57 in
(1035 mb)
N 3.5 mph
(N 6 kph)
- 10SM
07:15
Clear
32°F / 0°C 25°F / -4°C 75% 30.57 in
(1035 mb)
Calm - 10SM
06:55
Clear
30°F / -1°C 25°F / -4°C 80% 30.57 in
(1035 mb)
Calm - 10SM
06:35
Clear
28°F / -2°C 25°F / -4°C 86% 30.57 in
(1035 mb)
Calm - 10SM
06:15
Clear
27°F / -3°C 23°F / -5°C 86% 30.57 in
(1035 mb)
Calm - 10SM
05:55
Clear
25°F / -4°C 21°F / -6°C 86% 30.57 in
(1035 mb)
Calm - 10SM
05:35
Clear
23°F / -5°C 19°F / -7°C 86% 30.57 in
(1035 mb)
Calm - 10SM
05:15
Clear
23°F / -5°C 21°F / -6°C 93% 30.57 in
(1035 mb)
Calm - 10SM
04:55
Clear
21°F / -6°C 19°F / -7°C 93% 30.6 in
(1036 mb)
ESE 3.5 mph
(ESE 6 kph)
- 10SM
04:35
Clear
21°F / -6°C 19°F / -7°C 93% 30.6 in
(1036 mb)
Calm - 10SM
04:15
Clear
23°F / -5°C 19°F / -7°C 86% 30.6 in
(1036 mb)
Calm - 10SM
03:55
Clear
23°F / -5°C 19°F / -7°C 86% 30.63 in
(1037 mb)
Calm - 10SM
03:35
Clear
23°F / -5°C 19°F / -7°C 86% 30.63 in
(1037 mb)
Calm - 10SM
03:15
Clear
25°F / -4°C 19°F / -7°C 80% 30.63 in
(1037 mb)
Calm - 10SM
02:55
Clear
25°F / -4°C 19°F / -7°C 80% 30.63 in
(1037 mb)
Calm - 10SM
02:35
Clear
25°F / -4°C 19°F / -7°C 80% 30.63 in
(1037 mb)
Calm - 10SM
02:15
Clear
23°F / -5°C 19°F / -7°C 86% 30.63 in
(1037 mb)
Calm - 10SM
01:55
Clear
25°F / -4°C 19°F / -7°C 80% 30.63 in
(1037 mb)
Calm - 10SM
01:35
Clear
25°F / -4°C 19°F / -7°C 80% 30.66 in
(1038 mb)
Calm - 10SM
01:15
Clear
25°F / -4°C 19°F / -7°C 80% 30.63 in
(1037 mb)
Calm - 10SM
00:55
Clear
25°F / -4°C 21°F / -6°C 86% 30.63 in
(1037 mb)
Calm - 10SM
00:35
Clear
27°F / -3°C 19°F / -7°C 74% 30.66 in
(1038 mb)
Calm - 10SM
00:15
Clear
27°F / -3°C 19°F / -7°C 74% 30.66 in
(1038 mb)
Calm - 10SM
Time Weather Temperature Dewpoint Humidity Pressure Winds Precip Visibility


Weather for websites

WeatherForYou.com, LLC is not responsible for any damages or problems caused by this service. Current weather conditions are obtained from the closest station including government and personal stations which may have varying degrees of accuracy. Weather forecasts are derived from the NOAA NDFD. Like all things, this site belongs to Jesus Christ... He just trusts me to maintain it. If you have any questions or comments email webmaster@weatherforyou.com

Copyright © 2014, WeatherForYou.com LLC. All rights reserved.